Flag Weather past 2 weeks in Vatican City, Vatican City State

Now
66 °F

Passing clouds.


Feels Like: 66 °F
Forecast: 58 / 72 °F
Wind: 12 mph from Southeast

Location: Rome / Ciampino

Current Time: Nov 29, 2014 at 8:59:33 AM

Latest Report: Nov 29, 2014 at 8:15 AM


Visibility: N/A

Pressure: 29.86 "Hg

Humidity: 73%

Dew point: 57 °F

Location of Vatican CityLocation

Historic Weather in Vatican City — Graph

°F

Vatican City temperature yesterday

Maximum temperature yesterday: 68 °F (at 12:45 PM)
Minimum temperature yesterday: 54 °F (at 12:15 AM)
Average temperature yesterday: 62 °F

Past Weeks' High & Low Weather Summary

 TemperatureHumidityPressure
High68 °F (Nov 27, 1:45 PM)100% (Nov 26, 5:45 AM)30.30 "Hg (Nov 26, 5:45 AM)
Low41 °F (Nov 21, 7:15 AM)39% (Nov 21, 1:45 PM)29.65 "Hg (Nov 17, 8:45 PM)
Average57 °F81%30.00 "Hg
* Reported Nov 14 7:15 AM — Nov 29 7:45 AM, Vatican City, Weather by CustomWeather, © 2014

Note: Actual official high and low records may vary slightly from our data, if they occured in-between our weather recording intervals... More about our weather records

Advertising

Vatican City weather history for previous 24 hours

 ConditionsComfort  
Time TempWeatherWind HumidityBarometerVisibility
7:45 AM
Nov 29
64 °FPassing clouds.13 mph73%29.86 "HgN/A
7:15 AM64 °FPassing clouds.12 mph78%29.86 "HgN/A
6:45 AM64 °FClear.13 mph78%29.86 "Hg10 mi
6:15 AM64 °FClear.12 mph78%29.86 "Hg10 mi
5:45 AM64 °FPassing clouds.10 mph78%29.86 "HgN/A
5:15 AM64 °FPassing clouds.13 mph78%29.86 "HgN/A
4:45 AM64 °FPassing clouds.10 mph83%29.86 "HgN/A
4:15 AM66 °FPassing clouds.12 mph73%29.86 "HgN/A
3:45 AM66 °FPassing clouds.16 mph78%29.86 "HgN/A
3:15 AM64 °FPassing clouds.13 mph73%29.86 "HgN/A
2:45 AM64 °FPassing clouds.10 mph73%29.86 "HgN/A
2:15 AM63 °FPassing clouds.6 mph73%29.83 "HgN/A
1:45 AM63 °FPassing clouds.2 mph73%29.83 "HgN/A
1:15 AM63 °FPassing clouds.No wind68%29.83 "HgN/A
12:15 AM64 °FPassing clouds.6 mph64%29.83 "HgN/A
11:45 PM
Nov 28
64 °FPassing clouds.7 mph64%29.83 "HgN/A
11:15 PM66 °FPassing clouds.10 mph64%29.83 "HgN/A
10:45 PM66 °FPassing clouds.10 mph64%29.83 "HgN/A
10:15 PM66 °FClear.8 mph64%29.83 "Hg10 mi
9:45 PM66 °FClear.12 mph60%29.83 "Hg10 mi
9:15 PM66 °FPassing clouds.9 mph60%29.83 "HgN/A
8:45 PM66 °FClear.14 mph60%29.83 "Hg10 mi
8:15 PM66 °FClear.13 mph60%29.80 "Hg10 mi
7:45 PM66 °FPassing clouds.13 mph60%29.83 "HgN/A
7:15 PM64 °FPassing clouds.14 mph64%29.83 "HgN/A
6:45 PM63 °FPassing clouds.8 mph64%29.83 "HgN/A
6:15 PM63 °FPassing clouds.5 mph59%29.80 "HgN/A
5:45 PM64 °FPassing clouds.1 mph60%29.80 "HgN/A
5:15 PM64 °FPassing clouds.7 mph56%29.80 "HgN/A
4:45 PM66 °FPassing clouds.7 mph56%29.80 "HgN/A
4:15 PM66 °FScattered clouds.5 mph56%29.80 "HgN/A
3:45 PM66 °FScattered clouds.7 mph56%29.77 "HgN/A
3:15 PM68 °FScattered clouds.8 mph53%29.77 "HgN/A
2:45 PM68 °FPartly sunny.15 mph53%29.77 "HgN/A
2:15 PM68 °FPartly sunny.16 mph53%29.77 "HgN/A
1:45 PM68 °FScattered clouds.15 mph53%29.80 "HgN/A
1:15 PM68 °FScattered clouds.17 mph53%29.80 "HgN/A
12:45 PM68 °FScattered clouds.20 mph53%29.80 "HgN/A
12:15 PM66 °FScattered clouds.16 mph52%29.80 "HgN/A
11:45 AM66 °FScattered clouds.17 mph49%29.83 "HgN/A
11:15 AM66 °FScattered clouds.14 mph49%29.83 "HgN/A
10:45 AM64 °FScattered clouds.13 mph49%29.83 "HgN/A
10:15 AM64 °FScattered clouds.5 mph52%29.83 "HgN/A
9:45 AM64 °FBroken clouds.9 mph46%29.83 "HgN/A
9:15 AM63 °FScattered clouds.10 mph52%29.83 "HgN/A
8:45 AM59 °FScattered clouds.5 mph59%29.83 "HgN/A
8:15 AM55 °FScattered clouds.No wind82%29.83 "HgN/A
Weather by CustomWeather, © 2014

See weather overviewHow to use our weather pages